Hinckley, MN

3:08 AM CST on January 22, 2017 (GMT -0600)
Hinckley

Weather History for K04W - May, 2014

Change the Weather History Date:

Wednesday, May 7, 2014

  Actual Average (KJMR) Record (KJMR)
Temperature  
Mean Temperature 54 °F -  
Max Temperature 68 °F 65 °F 87 °F (1934)
Min Temperature 41 °F 38 °F 25 °F (1947)
Degree Days  
Heating Degree Days 10    
Growing Degree Days 4 (Base 50)    
Moisture  
Dew Point 39 °F    
Average Humidity 65    
Maximum Humidity 93    
Minimum Humidity 43    
Precipitation  
Precipitation 0.30 in - - ()
Sea Level Pressure  
Sea Level Pressure 29.80 in    
Wind  
Wind Speed 10 mph (NE)    
Max Wind Speed 18 mph    
Max Gust Speed 26 mph    
Visibility 10 miles    
Events Rain , Thunderstorm    
Averages and records for this station are not official NWS values.
T = Trace of Precipitation, MM = Missing Value Source: NWS Daily Summary

Daily Weather History Graph

Daily Weather History Graph

Search for Another Location

Airport or City:

Trip Planner

Search our weather history database for the weather conditions in past years. The results will help you decide how hot, cold, wet, or windy it might be!

Date:

Astronomy

May. 07, 2014 Rise Set
Actual Time 5:49 AM CDT 8:27 PM CDT
Civil Twilight 5:15 AM CDT 9:01 PM CDT
Nautical Twilight 4:32 AM CDT 9:44 PM CDT
Astronomical Twilight 3:43 AM CDT 10:34 PM CDT
Moon 1:10 PM CDT (5/7) 2:12 AM CDT (5/7)
Length of Visible Light 15h 45m
Length of Day
14h 37m
First Quarter, 55% of the Moon is Illuminated
May 7
First Quarter
May 14
Full
May 21
Last Quarter
May 28
New
Jun 5
First Quarter

Hourly Weather History & Observations

Time (CDT) Temp. Windchill Dew Point Humidity Pressure Visibility Wind Dir Wind Speed Gust Speed Precip Events Conditions
12:07 AM 46.4 °F 41.9 °F 35.6 °F 66% 29.88 in 10.0 mi NNE 9.2 mph - N/A   Overcast
12:27 AM 44.6 °F 40.7 °F 35.6 °F 71% 29.88 in 10.0 mi NE 6.9 mph - N/A   Overcast
12:47 AM 44.6 °F 42.2 °F 35.6 °F 71% 29.89 in 10.0 mi NE 4.6 mph - N/A   Overcast
1:08 AM 44.6 °F 40.2 °F 35.6 °F 71% 29.89 in 10.0 mi NNE 8.1 mph - N/A   Overcast
1:27 AM 44.6 °F 40.7 °F 35.6 °F 71% 29.88 in 10.0 mi NNE 6.9 mph - N/A   Overcast
1:47 AM 44.6 °F 40.7 °F 35.6 °F 71% 29.88 in 10.0 mi NNE 6.9 mph - N/A   Overcast
2:07 AM 44.6 °F 39.7 °F 35.6 °F 71% 29.88 in 10.0 mi NNE 9.2 mph - N/A   Overcast
2:27 AM 42.8 °F 37.0 °F 35.6 °F 76% 29.88 in 10.0 mi NNE 10.4 mph - N/A   Overcast
2:47 AM 42.8 °F 38.0 °F 33.8 °F 70% 29.88 in 10.0 mi NNE 8.1 mph - N/A Thunderstorm Overcast
3:07 AM 42.8 °F 38.0 °F 33.8 °F 70% 29.90 in 10.0 mi North 8.1 mph - N/A Thunderstorm Thunderstorm
3:27 AM 41.0 °F 33.9 °F 33.8 °F 76% 29.89 in 10.0 mi NNE 12.7 mph - N/A   Overcast
3:47 AM 41.0 °F 33.9 °F 33.8 °F 76% 29.89 in 10.0 mi NNE 12.7 mph 18.4 mph N/A   Overcast
4:07 AM 41.0 °F 34.7 °F 33.8 °F 76% 29.88 in 10.0 mi ENE 10.4 mph - N/A   Overcast
4:27 AM 41.0 °F 35.2 °F 33.8 °F 76% 29.86 in 10.0 mi ENE 9.2 mph - N/A   Overcast
5:07 AM 42.8 °F 37.0 °F 33.8 °F 70% 29.83 in 10.0 mi East 10.4 mph - N/A   Overcast
5:28 AM 44.6 °F 39.7 °F 33.8 °F 66% 29.82 in 10.0 mi ESE 9.2 mph - N/A   Overcast
6:07 AM 44.6 °F 40.2 °F 33.8 °F 66% 29.84 in 10.0 mi North 8.1 mph - N/A   Overcast
6:27 AM 44.6 °F 40.2 °F 33.8 °F 66% 29.85 in 10.0 mi North 8.1 mph - N/A   Scattered Clouds
6:47 AM 41.0 °F 34.3 °F 33.8 °F 76% 29.86 in 10.0 mi North 11.5 mph - N/A   Clear
7:08 AM 41.0 °F 34.7 °F 35.6 °F 81% 29.88 in 10.0 mi North 10.4 mph - N/A   Scattered Clouds
7:27 AM 41.0 °F 33.9 °F 35.6 °F 81% 29.87 in 10.0 mi NNE 12.7 mph - N/A   Mostly Cloudy
7:47 AM 42.8 °F 36.6 °F 35.6 °F 76% 29.86 in 10.0 mi NNE 11.5 mph - N/A   Overcast
8:07 AM 42.8 °F 37.5 °F 35.6 °F 76% 29.87 in 10.0 mi NNE 9.2 mph - N/A   Overcast
8:27 AM 44.6 °F 39.2 °F 35.6 °F 71% 29.86 in 10.0 mi NE 10.4 mph - N/A   Overcast
8:47 AM 44.6 °F 39.2 °F 35.6 °F 71% 29.85 in 10.0 mi NE 10.4 mph - N/A   Scattered Clouds
9:28 AM 50.0 °F - 35.6 °F 58% 29.84 in 10.0 mi ENE 13.8 mph 19.6 mph N/A   Scattered Clouds
9:47 AM 50.0 °F - 35.6 °F 58% 29.82 in 10.0 mi ENE 10.4 mph 16.1 mph N/A   Scattered Clouds
10:07 AM 51.8 °F - 35.6 °F 54% 29.82 in 10.0 mi ENE 13.8 mph 17.3 mph N/A   Mostly Cloudy
10:28 AM 53.6 °F - 37.4 °F 54% 29.83 in 10.0 mi ENE 8.1 mph - N/A   Scattered Clouds
10:47 AM 53.6 °F - 37.4 °F 54% 29.82 in 10.0 mi ENE 11.5 mph 16.1 mph N/A   Mostly Cloudy
11:06 AM 55.4 °F - 37.4 °F 51% 29.83 in 10.0 mi East 11.5 mph - N/A   Overcast
11:27 AM 55.4 °F - 39.2 °F 54% 29.81 in 10.0 mi East 12.7 mph 17.3 mph N/A   Overcast
11:48 AM 59.0 °F - 41.0 °F 51% 29.81 in 10.0 mi ENE 9.2 mph - N/A   Scattered Clouds
12:27 PM 60.8 °F - 41.0 °F 48% 29.80 in 10.0 mi East 9.2 mph - N/A   Clear
12:48 PM 62.6 °F - 42.8 °F 48% 29.79 in 10.0 mi ENE 11.5 mph 18.4 mph N/A   Clear
1:07 PM 64.4 °F - 44.6 °F 49% 29.77 in 10.0 mi East 13.8 mph 19.6 mph N/A   Clear
1:28 PM 66.2 °F - 44.6 °F 46% 29.77 in 10.0 mi East 12.7 mph 19.6 mph N/A   Clear
1:48 PM 66.2 °F - 44.6 °F 46% 29.76 in 10.0 mi East 12.7 mph 20.7 mph N/A   Clear
2:07 PM 68.0 °F - 44.6 °F 43% 29.75 in 10.0 mi East 12.7 mph 19.6 mph N/A   Clear
2:28 PM 66.2 °F - 44.6 °F 46% 29.75 in 10.0 mi East 17.3 mph 23.0 mph N/A   Clear
2:47 PM 68.0 °F - 46.4 °F 46% 29.74 in 10.0 mi East 17.3 mph 21.9 mph N/A   Clear
3:08 PM 68.0 °F - 46.4 °F 46% 29.74 in 10.0 mi East 17.3 mph 25.3 mph N/A   Scattered Clouds
3:27 PM 68.0 °F - 46.4 °F 46% 29.73 in 10.0 mi ESE 13.8 mph 18.4 mph N/A   Scattered Clouds
3:47 PM 68.0 °F - 46.4 °F 46% 29.73 in 10.0 mi East 10.4 mph 19.6 mph N/A   Mostly Cloudy
4:08 PM 66.2 °F - 46.4 °F 49% 29.72 in 10.0 mi East 15.0 mph 20.7 mph N/A   Overcast
4:27 PM 66.2 °F - 46.4 °F 49% 29.71 in 10.0 mi East 13.8 mph 20.7 mph N/A   Overcast
4:48 PM 64.4 °F - 46.4 °F 52% 29.71 in 10.0 mi East 11.5 mph 17.3 mph N/A Thunderstorm Overcast
5:27 PM 64.4 °F - 46.4 °F 52% 29.71 in 10.0 mi East 12.7 mph - N/A Thunderstorm Overcast
5:48 PM 64.4 °F - 48.2 °F 56% 29.69 in 10.0 mi East 16.1 mph 20.7 mph N/A   Overcast
6:08 PM 64.4 °F - 48.2 °F 56% 29.71 in 10.0 mi ESE 6.9 mph 19.6 mph N/A Thunderstorm Overcast
6:27 PM 64.4 °F - 48.2 °F 56% 29.74 in 10.0 mi ESE 3.5 mph - N/A   Overcast
6:48 PM 59.0 °F - 42.8 °F 55% 29.72 in 10.0 mi NE 5.8 mph - N/A   Overcast
7:07 PM 57.2 °F - 41.0 °F 55% 29.75 in 10.0 mi North 9.2 mph - N/A   Overcast
7:27 PM 53.6 °F - 37.4 °F 54% 29.74 in 10.0 mi North 11.5 mph - N/A   Overcast
7:48 PM 50.0 °F - 37.4 °F 62% 29.73 in 10.0 mi NE 15.0 mph - N/A   Overcast
8:07 PM 46.4 °F 41.1 °F 35.6 °F 66% 29.74 in 10.0 mi NNE 11.5 mph - N/A   Overcast
8:28 PM 44.6 °F 38.8 °F 37.4 °F 76% 29.78 in 10.0 mi North 11.5 mph - N/A Rain Rain
8:48 PM 42.8 °F 34.5 °F 35.6 °F 76% 29.77 in 10.0 mi North 18.4 mph 26.5 mph N/A   Overcast
9:07 PM 42.8 °F 35.8 °F 35.6 °F 76% 29.77 in 10.0 mi NNE 13.8 mph 23.0 mph N/A Rain , Thunderstorm Light Thunderstorms and Rain
9:28 PM 41.0 °F 33.1 °F 37.4 °F 87% 29.74 in 1.5 mi ENE 15.0 mph - 0.22 in Thunderstorm Unknown
9:47 PM 41.0 °F 33.9 °F 37.4 °F 87% 29.72 in 7.0 mi NE 12.7 mph 23.0 mph 0.28 in Rain , Thunderstorm Light Thunderstorms and Rain
10:07 PM 41.0 °F 36.4 °F 37.4 °F 87% 29.78 in 10.0 mi North 6.9 mph - N/A Rain , Thunderstorm Rain
10:28 PM 41.0 °F 36.4 °F 39.2 °F 93% 29.75 in 10.0 mi NE 6.9 mph - 0.01 in Rain , Thunderstorm Light Thunderstorms and Rain
10:47 PM 42.8 °F 38.0 °F 41.0 °F 93% 29.77 in 10.0 mi NNW 8.1 mph - 0.01 in Rain , Thunderstorm Light Thunderstorms and Rain
11:08 PM 42.8 °F 38.6 °F 41.0 °F 93% 29.81 in 10.0 mi NW 6.9 mph - N/A Rain , Thunderstorm Light Thunderstorms and Rain
11:27 PM 42.8 °F 36.2 °F 41.0 °F 93% 29.73 in 10.0 mi ENE 12.7 mph - 0.01 in Rain , Thunderstorm Light Thunderstorms and Rain
11:47 PM 44.6 °F - 42.8 °F 93% 29.76 in 10.0 mi Calm Calm - 0.01 in Rain , Thunderstorm Light Thunderstorms and Rain